Theta_e
299 300 299 299 299 299 300 300 300 300 299 298 299 300 299 300 300 300 299 300 299 299 301 303 304 307 310 312 309 305 308 305 305 314 313 311 312 312 313 312 311 314 314 314 313 315 316 311 312 310 310 306 305 305
299 299 299 299 299 300 300 300 300 300 299 298 298 300 299 298 299 298 299 299 301 301 301 302 302 303 306 309 310 307 309 304 307 310 308 310 309 308 312 314 310 314 313 312 312 313 310 310 311 309 308 306 306 303
299 299 299 299 298 298 300 300 300 300 299 298 298 299 300 299 299 299 298 299 300 301 301 303 303 304 304 305 307 305 304 307 306 307 306 306 309 307 312 312 311 310 311 311 310 310 310 308 307 307 307 306 302 301
298 298 298 299 300 299 299 298 300 300 299 298 298 299 300 300 299 299 299 299 299 302 301 301 302 304 304 304 305 305 304 305 304 303 301 303 307 306 309 310 311 310 310 309 310 309 309 308 308 305 302 301 300 300
297 297 298 298 299 299 299 300 300 299 297 297 298 299 300 299 299 299 299 299 299 301 301 300 300 302 302 303 302 302 302 302 303 301 301 304 304 306 305 307 309 307 308 309 310 309 309 306 307 301 300 300 300 300
296 296 297 298 298 298 299 298 297 297 296 297 297 298 300 300 299 300 299 298 299 301 301 299 298 299 300 300 300 301 302 303 303 302 301 301 303 304 305 306 305 307 309 309 303 304 306 303 302 301 301 301 301 301
297 297 297 297 297 298 298 298 297 296 296 296 297 299 300 300 299 298 299 300 300 302 301 297 298 297 299 300 301 302 303 302 302 300 299 300 299 302 302 304 303 303 306 307 304 300 301 301 300 300 300 299 299 299
295 297 298 299 299 298 298 298 298 296 296 297 299 300 300 298 298 298 299 300 302 302 300 300 298 298 298 299 299 299 299 299 299 299 299 300 299 299 301 301 301 302 303 302 301 302 301 301 300 300 300 299 299 298
295 298 299 299 299 299 299 299 297 297 298 299 299 299 298 298 299 299 300 301 301 300 298 298 297 300 298 298 298 298 299 299 298 299 300 300 300 300 300 300 301 299 300 299 300 300 300 300 299 298 298 297 296 295
297 298 299 301 302 300 300 299 298 298 299 299 298 299 297 299 298 298 299 299 299 297 298 297 296 298 298 298 298 296 298 297 299 299 298 299 300 299 299 299 299 300 299 299 299 298 298 298 297 296 296 295 295 294
298 298 299 300 301 301 299 299 298 298 298 298 297 294 296 298 297 297 296 297 295 294 295 296 296 296 297 295 294 297 296 296 299 298 299 299 298 298 300 300 299 299 299 299 298 297 297 297 296 295 294 294 294 293
298 297 299 300 300 299 299 299 299 299 299 299 297 295 295 296 296 296 297 297 295 297 296 298 295 296 297 297 296 297 298 297 300 297 298 299 296 299 299 299 299 298 298 297 296 296 296 296 296 295 294 294 293 292
297 299 297 298 299 300 300 300 300 299 298 297 297 296 296 296 295 295 294 297 295 296 297 298 298 296 296 297 298 299 297 297 298 298 297 297 299 298 297 298 297 296 296 295 295 295 294 294 293 294 294 293 292 290
294 297 298 296 297 299 297 297 297 297 297 295 295 294 293 294 293 295 295 295 296 297 297 297 297 298 297 297 297 295 297 299 299 298 297 298 298 297 296 296 296 295 295 294 293 292 292 292 292 291 290 289 289 289
292 295 295 295 296 298 298 298 297 296 295 296 296 295 295 295 298 298 297 297 298 297 297 297 297 296 297 298 298 299 299 298 298 297 296 298 296 296 296 295 294 294 293 292 292 292 290 290 290 290 290 290 289 289
291 292 293 294 294 296 297 297 296 296 297 297 297 295 297 294 297 297 297 297 297 297 297 297 296 296 296 297 298 296 298 297 296 298 295 296 296 296 295 294 294 293 292 291 291 291 291 291 290 290 289 287 287 288
290 291 293 294 294 296 296 296 295 296 297 297 294 297 297 296 297 297 297 297 297 297 296 296 295 297 292 297 297 296 295 298 297 296 296 296 296 295 295 294 294 293 292 291 291 290 290 289 289 288 287 288 288 288
290 292 293 293 296 296 295 295 296 297 296 297 293 297 297 297 297 297 297 297 297 298 297 297 296 297 292 297 296 294 296 297 297 297 296 296 295 295 295 294 293 292 291 290 289 288 288 287 286 286 285 285 285 285
292 291 294 295 294 293 294 295 295 294 295 297 297 297 297 297 297 297 298 298 298 298 297 294 294 295 295 292 291 296 296 296 296 296 295 295 294 294 293 292 291 290 288 287 287 286 285 285 285 284 284 284 284 284
293 291 293 295 295 294 295 296 295 295 295 296 296 296 296 297 297 296 296 296 297 297 292 291 295 296 296 297 297 297 296 296 295 294 293 293 293 293 291 290 289 288 287 286 285 285 284 284 283 283 283 282 282 281
292 291 293 295 295 296 296 296 295 295 295 295 296 296 295 296 296 296 295 296 295 291 290 295 296 296 297 298 297 296 296 295 295 294 293 291 291 291 289 288 287 286 285 285 284 283 283 282 281 281 280 280 280 281
291 291 293 294 294 294 295 295 295 296 296 295 295 295 293 286 291 295 296 295 293 295 296 294 294 294 296 296 296 296 295 295 293 292 292 292 290 288 287 287 287 285 284 283 282 282 281 280 279 279 281 281 281 281
292 291 293 293 292 292 292 294 294 295 294 294 294 294 292 290 295 296 288 294 294 294 295 296 295 293 294 293 292 291 291 291 291 290 290 289 288 287 286 285 284 283 283 282 281 280 279 278 279 280 280 280 280 280
292 290 291 292 291 283 292 291 294 294 293 293 293 292 292 291 296 293 292 290 294 295 295 295 294 293 292 291 290 289 289 289 289 288 287 286 285 284 284 283 283 282 281 281 280 279 278 278 279 279 279 280 280 280
291 289 291 283 291 285 285 284 289 291 287 290 290 289 290 294 289 288 289 289 293 294 294 294 293 293 291 290 289 288 289 289 288 287 286 284 284 283 282 282 281 281 280 280 279 278 277 278 278 278 278 278 278 278
286 288 287 286 283 287 289 285 284 285 287 287 288 292 292 286 285 286 289 293 292 293 293 292 291 290 289 289 288 287 287 287 286 285 284 284 283 282 282 281 281 280 279 279 278 277 277 277 278 277 277 277 276 276
285 284 291 292 292 292 288 289 292 288 284 283 286 284 282 284 282 285 295 294 294 294 293 292 291 289 289 289 288 288 287 286 285 285 284 282 282 281 280 279 279 279 278 278 277 276 276 277 277 277 276 276 276 275
289 291 287 289 291 293 286 286 285 285 287 291 288 284 284 283 285 293 294 294 294 294 292 290 289 289 290 290 289 288 286 285 283 283 282 281 280 278 278 277 277 277 276 275 275 275 276 276 277 277 276 276 275 274
291 291 291 284 284 288 286 287 288 291 293 292 286 284 284 292 292 292 292 292 291 290 289 290 290 290 290 289 287 286 285 285 283 282 281 279 279 279 278 278 277 276 275 275 275 275 275 275 276 275 275 275 274 274
286 291 287 281 283 286 287 292 292 292 292 293 292 292 292 291 291 291 291 291 290 289 289 289 289 288 288 287 285 283 283 282 281 280 279 279 279 279 278 277 277 276 275 274 274 274 274 274 274 274 274 273 273 273
290 291 287 286 283 291 292 292 292 292 292 292 292 292 290 290 290 289 289 289 290 290 289 289 288 287 287 286 285 284 283 282 282 280 279 279 279 278 278 277 276 275 274 274 273 273 273 273 273 273 273 273 272 272
290 287 281 283 288 291 291 291 291 292 291 291 290 290 290 290 289 289 289 288 288 288 288 288 287 286 285 284 283 282 282 282 281 279 278 277 277 276 276 275 274 274 273 273 273 273 273 274 273 273 273 272 272 271
290 291 291 289 286 286 290 291 290 287 289 288 289 290 289 289 285 288 288 288 288 288 288 287 287 286 285 284 283 282 281 280 278 277 277 276 276 276 275 274 273 273 273 272 272 272 273 273 273 273 272 272 272 271
Wind_Speed
14 13 16 22 26 31 35 39 41 43 44 46 46 43 41 40 39 38 37 31 34 9 12 11 9 7 5 13 5 6 6 2 1 10 5 5 5 8 5 6 8 12 9 6 6 7 11 13 7 11 5 11 18 15
11 11 15 18 20 27 32 35 38 41 43 44 45 42 41 41 39 38 31 38 35 12 9 26 31 24 18 10 11 17 2 6 9 4 4 3 3 4 6 5 6 6 8 7 9 6 3 5 12 10 15 18 14 16
11 9 9 16 21 24 29 32 35 40 42 41 42 42 41 40 38 41 42 30 33 28 11 18 23 26 33 35 19 5 5 9 6 2 2 1 4 4 6 5 4 5 8 3 3 7 11 9 1 7 14 15 13 12
13 9 6 6 12 22 25 28 35 36 38 38 41 42 41 38 37 37 42 39 30 11 5 6 29 24 23 22 26 21 10 5 2 3 1 3 3 6 2 1 5 4 8 7 4 4 5 10 19 10 12 10 11 11
17 11 8 8 9 13 18 31 33 33 32 36 36 38 38 36 34 33 36 36 35 27 3 8 10 23 34 33 26 25 20 17 10 3 3 4 3 3 2 1 4 6 7 7 7 10 13 9 15 11 14 13 12 10
17 14 8 12 16 17 21 24 26 29 31 34 35 35 34 31 31 29 16 32 37 40 9 2 4 10 16 15 15 19 26 27 22 9 3 6 7 7 4 4 5 18 20 19 4 11 13 21 14 9 14 13 10 7
18 18 14 11 13 25 29 28 29 28 31 33 32 33 32 31 30 25 11 15 37 41 12 2 3 4 9 8 8 12 19 11 11 6 5 4 6 11 2 4 4 19 21 22 17 19 16 16 14 16 15 12 8 6
27 25 26 21 15 27 36 36 32 31 33 34 35 32 28 22 22 24 35 13 44 30 9 3 1 3 11 5 3 6 6 5 6 3 3 2 3 3 3 7 6 11 18 19 15 17 22 14 9 9 8 6 5 4
32 31 30 26 17 24 40 42 38 35 36 38 33 26 23 20 9 16 29 33 30 10 5 4 5 3 12 5 5 4 4 2 2 2 2 4 2 5 6 8 16 20 11 19 16 19 22 24 20 13 9 6 5 3
31 37 35 36 13 38 44 49 44 39 35 31 30 12 6 13 24 27 13 7 2 5 5 2 7 3 8 4 2 3 2 2 2 2 5 3 3 12 9 13 13 21 20 14 13 14 17 17 16 12 7 3 2 3
31 42 36 37 36 42 48 51 45 41 39 31 7 5 27 20 3 6 3 3 2 2 5 6 7 6 7 3 3 3 2 2 3 2 3 3 4 3 16 21 17 11 16 23 18 16 13 13 15 12 9 5 4 3
30 36 39 38 40 43 47 46 46 38 24 13 20 20 6 4 5 3 2 2 1 4 6 4 4 7 5 5 3 5 3 2 4 8 3 3 3 12 24 26 22 22 21 17 13 14 14 12 11 10 9 7 6 6
27 30 36 41 44 44 47 46 36 30 28 33 10 4 2 2 3 5 6 2 2 4 8 8 4 7 5 4 2 3 5 4 3 2 3 3 7 13 20 26 23 19 17 15 13 11 8 9 9 9 8 7 7 6
18 27 32 34 36 36 43 38 32 22 10 4 4 3 4 3 4 4 4 4 4 9 17 16 5 3 4 3 3 4 4 3 4 3 4 4 17 21 24 24 23 19 14 13 12 11 10 8 6 5 5 5 5 4
10 12 14 18 20 26 22 16 10 5 5 4 3 3 3 1 2 3 11 11 8 21 23 10 7 4 1 3 3 3 4 2 4 4 2 11 23 25 24 20 18 17 15 13 11 7 6 5 4 4 4 6 8 9
8 9 10 9 9 8 13 9 8 4 3 3 2 2 2 3 2 4 11 14 18 21 16 7 3 3 3 3 4 5 4 4 3 1 7 24 25 25 22 17 16 14 11 9 8 6 5 5 5 6 9 9 8 7
9 8 7 4 5 10 8 6 3 3 3 2 2 8 9 7 3 6 12 12 23 9 3 3 4 5 2 2 3 2 3 2 6 12 19 26 26 21 18 16 16 14 12 10 8 6 5 6 9 11 11 10 9 11
9 8 6 6 10 11 5 3 3 3 3 3 3 2 8 7 12 11 17 20 10 3 3 3 4 2 4 4 3 3 4 13 16 17 18 17 16 15 15 16 15 13 10 8 7 7 7 7 8 8 10 12 13 12
9 6 4 4 9 4 3 2 3 3 2 5 8 10 10 13 15 14 9 7 4 3 2 2 3 1 2 1 3 14 21 21 19 16 16 14 14 15 12 9 8 8 6 5 3 3 4 4 6 8 10 13 15 16
6 4 2 4 5 4 3 3 4 5 2 4 7 6 5 6 8 7 5 5 4 2 3 2 1 1 3 7 20 22 21 21 22 18 14 13 11 9 8 6 6 5 4 4 5 6 7 9 10 12 14 16 19 22
5 7 3 6 4 4 4 3 3 4 7 5 10 6 4 5 4 3 2 2 2 1 0 3 10 11 10 13 14 18 18 19 21 17 19 15 13 10 8 8 7 7 8 8 8 7 8 10 12 15 19 18 13 11
8 7 2 4 2 2 3 2 5 6 3 9 8 5 4 1 1 4 6 1 2 3 3 11 15 15 15 16 16 15 16 18 15 11 10 11 16 13 13 13 12 10 8 6 5 7 10 12 15 11 10 9 8 11
6 4 2 2 2 2 1 3 3 4 3 3 6 3 1 1 5 10 1 5 6 7 9 12 13 15 14 14 12 11 11 12 12 12 11 12 12 10 9 8 7 7 5 5 7 8 11 9 8 8 9 10 10 7
3 1 1 1 3 2 1 0 3 4 3 3 3 2 3 2 9 1 3 3 6 14 16 17 17 18 14 12 11 12 14 12 13 12 10 10 9 7 7 8 7 7 6 5 5 8 8 5 6 9 10 7 1 2
1 1 3 2 2 4 2 3 2 3 2 3 3 0 2 4 2 2 3 4 15 20 20 20 20 18 19 17 12 15 15 14 14 12 9 8 9 11 8 7 6 5 5 6 6 5 5 4 4 6 7 5 4 4
2 4 5 6 2 3 4 3 3 4 3 2 2 2 3 3 2 4 3 13 20 24 23 22 20 17 16 15 17 18 16 14 12 12 13 10 8 8 9 9 9 8 8 6 5 5 4 3 1 4 7 4 3 3
3 4 5 7 4 3 1 1 4 4 2 4 3 2 3 2 5 4 5 14 17 20 17 14 15 18 17 16 12 14 14 13 11 11 10 9 7 5 6 8 9 9 7 6 7 6 5 6 3 2 2 2 4 4
7 3 5 5 3 4 3 1 3 4 4 6 5 2 7 7 4 5 6 11 10 14 17 16 16 14 13 13 14 14 14 13 12 12 11 9 6 3 2 2 4 4 5 4 4 3 4 6 4 2 1 2 2 1
5 5 9 2 1 1 3 4 4 5 5 11 5 3 3 2 4 5 9 10 13 19 23 24 18 14 17 16 14 13 11 12 13 13 13 11 8 6 4 3 2 1 2 4 2 1 3 5 4 1 2 1 1 0
4 9 4 2 5 5 4 6 5 4 4 6 8 6 5 4 6 7 10 12 15 19 20 19 18 21 21 21 18 15 12 11 10 9 9 8 5 4 5 5 4 3 3 4 3 2 4 5 3 2 1 1 0 0
6 10 3 3 4 5 7 9 7 4 4 5 5 6 7 6 8 11 10 12 14 16 18 19 19 18 18 18 17 14 12 11 10 9 8 5 5 5 5 6 6 5 5 6 5 5 4 5 3 2 2 2 1 1
9 6 4 3 2 5 5 5 5 6 7 6 5 6 8 6 6 7 14 18 19 20 20 18 19 18 14 10 8 8 6 7 9 10 8 5 4 4 5 5 6 7 8 7 7 7 7 6 6 3 4 3 2 1
6 4 3 4 2 3 5 5 4 0 3 3 6 11 13 11 6 10 11 18 21 22 19 18 16 12 9 9 9 9 7 7 7 8 7 5 4 3 3 4 6 8 10 7 5 4 7 8 6 5 5 5 3 3
Wind_Direction
298 279 249 235 227 225 221 219 219 219 219 219 219 217 215 210 212 214 218 221 219 231 249 236 238 224 191 194 160 154 119 184 112 209 201 185 195 190 172 176 173 178 176 200 213 236 251 197 190 205 192 146 138 132
306 276 250 233 231 225 218 219 220 218 217 217 216 215 214 212 209 211 209 216 213 206 233 235 249 242 223 221 217 180 222 153 170 184 193 181 191 162 164 200 184 199 191 176 198 209 222 179 244 255 210 165 164 150
332 306 270 243 236 224 219 219 216 215 212 215 213 212 210 213 211 207 211 209 210 220 238 210 221 242 235 238 236 182 213 192 175 196 157 199 216 163 175 205 157 237 196 219 137 232 231 177 127 175 173 155 153 150
355 324 294 252 231 222 217 212 214 213 204 208 209 210 211 204 209 207 211 212 210 217 226 225 217 218 224 224 228 246 238 179 170 216 222 216 196 190 206 124 196 185 151 185 242 258 113 176 213 206 158 137 132 128
1 339 285 267 235 220 213 208 209 201 201 203 205 206 209 204 207 207 216 217 216 202 219 201 222 225 233 243 238 243 237 230 231 197 201 217 194 160 163 135 217 185 191 187 213 205 190 169 201 167 147 148 147 152
2 354 329 255 236 225 213 200 195 196 199 200 202 204 199 196 197 207 214 228 221 218 222 176 216 217 216 226 226 223 223 221 219 201 212 224 187 176 192 205 234 211 225 207 164 165 174 170 169 173 148 137 136 142
360 343 326 315 239 216 213 204 200 198 196 195 195 199 193 193 201 190 203 227 215 203 196 180 199 178 166 173 199 212 210 210 218 210 212 205 215 178 156 214 254 219 211 186 168 129 118 144 140 150 155 142 149 154
354 346 336 322 275 213 205 196 191 188 184 185 187 180 180 185 198 217 230 221 178 174 168 162 89 127 163 157 159 169 172 194 205 212 217 226 163 167 193 228 256 205 181 169 175 184 178 162 157 168 168 182 201 219
2 357 352 328 288 210 198 184 177 177 175 174 164 171 162 179 171 185 162 158 172 166 134 156 147 148 165 134 144 145 154 196 242 230 221 184 196 229 191 211 221 149 153 132 149 154 168 171 167 168 193 205 237 239
16 12 14 15 59 163 168 168 164 163 160 154 150 144 144 160 139 137 132 132 122 130 130 112 130 150 156 126 123 114 143 179 239 215 168 229 258 259 276 222 216 161 139 146 140 149 156 154 159 163 177 178 244 285
33 27 43 57 94 128 148 153 150 149 150 146 122 94 129 130 121 65 88 110 112 34 179 184 153 135 184 130 130 177 162 171 222 208 208 217 248 191 149 154 155 168 195 197 200 184 171 168 159 157 153 181 229 211
45 48 69 86 103 122 136 141 146 145 151 139 130 116 91 87 62 87 115 119 191 203 164 156 116 101 116 115 105 174 185 204 233 150 210 237 249 158 157 151 155 168 169 166 169 160 160 170 171 177 187 206 231 262
52 66 66 82 106 118 129 140 139 137 131 120 107 87 119 138 117 163 172 191 204 164 177 152 124 121 119 164 147 186 183 221 134 184 231 235 141 142 142 157 154 159 157 152 145 144 159 165 182 196 211 238 260 267
57 77 82 83 92 105 113 113 114 122 143 78 113 121 154 231 221 191 182 160 189 156 148 140 113 125 134 157 141 167 209 155 198 215 239 179 161 152 157 161 158 157 162 165 174 165 172 181 203 223 235 233 270 295
92 107 103 97 105 114 116 119 129 137 68 78 106 192 212 224 53 108 132 121 136 149 133 114 83 81 121 156 193 202 171 215 225 224 219 160 160 163 165 165 166 162 162 167 175 182 160 171 202 235 253 260 286 289
94 126 151 156 175 152 158 131 105 110 105 130 116 95 111 97 132 86 131 126 147 138 116 107 116 166 192 171 183 206 186 216 219 197 140 149 151 160 165 173 173 176 176 168 172 189 208 228 250 278 291 295 291 282
57 53 60 117 174 164 148 143 64 72 70 52 356 100 123 87 92 141 151 143 151 140 161 149 134 191 107 190 203 180 209 171 130 130 151 157 159 165 169 174 181 182 180 179 193 203 225 256 277 283 288 289 283 282
46 52 61 110 122 158 147 66 90 82 59 59 84 75 91 105 103 101 129 143 150 237 175 173 149 145 168 185 185 208 118 131 135 138 150 160 164 170 178 172 172 180 194 208 218 237 263 288 293 295 290 287 288 290
0 20 84 88 171 152 104 75 65 86 71 93 101 100 102 103 116 138 139 141 120 75 65 45 78 131 172 195 147 140 140 143 142 146 151 162 167 168 172 178 186 192 199 207 233 296 299 273 267 280 290 295 297 297
331 358 19 167 161 130 106 105 118 112 161 150 128 111 98 102 117 109 93 87 79 38 37 67 130 179 187 153 161 164 167 166 159 158 165 181 186 191 190 202 195 182 174 175 206 237 249 268 284 293 297 301 305 305
345 6 101 137 84 92 109 111 101 125 134 130 139 116 100 132 122 118 102 106 54 131 262 98 137 133 132 160 168 172 176 182 183 184 186 181 194 201 192 180 179 190 202 223 252 274 296 304 306 308 308 306 305 305
342 359 48 64 89 91 98 93 143 121 107 136 126 119 118 73 171 188 171 143 220 230 161 155 158 155 154 149 155 170 173 182 183 182 195 207 187 182 184 191 194 201 225 251 285 310 316 318 316 315 327 324 316 321
342 345 89 47 88 59 203 122 111 126 125 157 128 107 194 211 191 161 115 209 217 208 187 170 171 168 179 175 179 182 185 197 194 189 181 177 179 183 184 199 220 240 253 281 301 310 319 318 317 326 330 328 314 301
345 25 79 79 99 223 199 242 176 117 104 126 145 182 179 172 161 111 234 213 200 183 184 177 173 169 175 189 192 180 183 181 175 171 175 176 180 182 195 196 219 249 258 271 290 314 318 304 336 354 358 13 178 294
141 230 160 306 166 89 88 356 354 80 159 180 125 227 203 145 131 225 228 204 190 187 183 183 186 193 191 187 191 187 181 188 186 178 183 193 189 183 190 205 213 224 252 271 299 313 303 290 328 3 3 338 334 317
175 215 155 184 243 145 180 137 173 184 135 122 185 141 129 106 123 241 240 182 187 190 189 190 190 187 190 201 175 176 184 187 189 190 185 205 223 239 231 227 233 240 256 270 284 313 287 252 301 359 351 355 1 353
215 249 204 208 196 189 91 97 151 110 127 171 187 111 92 159 235 250 176 185 191 199 200 198 197 181 173 173 177 183 188 196 208 210 202 207 225 244 259 257 248 247 252 270 292 298 261 219 210 280 342 22 28 29
221 224 171 194 167 162 151 116 143 168 186 171 121 159 173 196 229 165 184 190 195 181 176 179 179 181 191 192 191 191 190 192 190 192 195 200 212 216 224 207 220 246 263 258 273 279 250 214 212 212 256 322 341 23
215 202 162 94 59 116 173 173 207 212 186 164 149 191 221 148 178 185 166 170 175 175 170 175 183 187 186 181 181 187 202 204 201 200 208 209 207 205 212 207 209 252 272 233 232 353 177 169 178 272 307 283 199 345
237 188 116 118 143 202 220 196 183 189 181 174 152 130 130 145 150 163 183 182 183 186 190 193 189 187 185 182 181 183 194 204 212 217 212 221 211 212 220 225 240 278 281 216 194 119 133 181 215 230 252 232 171 140
188 185 116 134 198 203 181 184 190 187 179 168 151 143 148 157 163 166 184 202 204 201 197 194 194 199 201 197 200 202 201 211 212 213 219 227 218 211 216 240 254 246 227 218 215 185 173 164 157 174 161 138 66 34
195 173 139 129 138 152 161 187 182 189 189 186 175 153 155 164 184 207 202 198 206 207 210 211 206 201 210 209 201 199 207 217 212 212 214 210 203 213 231 237 234 226 211 201 204 210 206 190 188 218 224 247 275 272
168 171 112 109 106 157 165 147 159 87 209 215 211 199 195 189 208 200 199 204 210 216 214 213 208 212 214 205 201 194 185 175 172 184 189 194 207 228 247 232 218 198 194 197 183 179 183 193 201 199 217 254 230 199